{"data":{"norad_id":69404,"intl_designator":"2026-125D","name":"QIANFAN-186","alt_names":[],"object_type":"PAYLOAD","status":"ACTIVE","operator":null,"country":"PRC","launch_date":"2026-06-05","launch_site_code":"WSC","launch_vehicle":null,"mission":null,"orbit_class":"UNKNOWN","rcs_meters":null,"size_class":null,"mass_kg":null,"dimensions":null,"purposes":[],"wikipedia_slug":null,"has_3d_model":false,"image_url":null,"decayed_at":null,"tle_current":{"epoch":"2026-09-19T22:34:30.222048Z","epoch_age_seconds":83083,"freshness":"FRESH","line1":"1 69404U 26125D   26262.94062757  .00000027  00000+0  23780-4 0  9999","line2":"2 69404  88.9885 270.3882 0002022  95.8958 264.2423 13.51008240 14733","mean_motion":13.5100824,"eccentricity":0.0002022,"inclination_deg":88.9885,"raan_deg":270.3882,"arg_perigee_deg":95.8958,"mean_anomaly_deg":264.2423,"bstar":2.378e-5,"rev_number":1473,"period_min":106.58706271103,"perigee_km":1067.0455857435,"apogee_km":1070.0570264945,"semimajor_km":7446.688306119,"source":"CELESTRAK","updated_at":"2026-09-20T09:00:24.865318Z"}}}